Weather History for Cincinnati, OH

Change the Weather History Date:

Monday, July 8, 2013

  Actual Average Record
Temperature  
Mean Temperature 76 °F -  
Max Temperature 87 °F 88 °F 101 °F (1988)
Min Temperature 64 °F 65 °F 52 °F (1984)
Cooling Degree Days 10    
Growing Degree Days 26 (Base 50)    
Moisture  
Dew Point 67 °F    
Average Humidity 90    
Maximum Humidity 100    
Minimum Humidity 55    
Precipitation  
Precipitation 0.00 in - - ()
Sea Level Pressure  
Sea Level Pressure 30.11 in    
Wind  
Wind Speed 1 mph (SSW)    
Max Wind Speed 10 mph    
Max Gust Speed -    
Visibility 4 miles    
Events Fog , Rain    
Averages and records for this station are not official NWS values.
T = Trace of Precipitation, MM = Missing Value Source: NWS Daily Summary

Daily Weather History Graph

Daily Weather History Graph

Search for Another Location

Airport:

Trip Planner

Search our weather history database for the weather conditions in past years. The results will help you decide how hot, cold, wet, or windy it might be!

Date:

Astronomy

Jul. 08, 2013 Rise Set
Actual Time 6:19 AM EDT 9:05 PM EDT
Civil Twilight 5:47 AM EDT 9:37 PM EDT
Nautical Twilight 5:07 AM EDT 10:17 PM EDT
Astronomical Twilight 4:22 AM EDT 11:02 PM EDT
Moon 6:47 AM EDT (7/8) 9:08 PM EDT (7/8)
Length of Visible Light 15h 49m
Length of Day
14h 46m
New Moon, 0% of the Moon is Illuminated
Jul 8
New Moon
Jul 15
First Quarter
Jul 22
Full
Jul 29
Last Quarter
Aug 6
New

Hourly Weather History & Observations

Time (EDT) Temp. Heat Index Dew Point Humidity Pressure Visibility Wind Dir Wind Speed Gust Speed Precip Events Conditions
12:53 AM 66.9 °F - 66.0 °F 97% 30.10 in 5.0 mi Calm Calm - N/A   Clear
1:53 AM 66.0 °F - 66.0 °F 100% 30.11 in 2.5 mi Calm Calm - N/A   Clear
2:00 AM 66.2 °F - 66.2 °F 100% 30.12 in 0.8 mi Calm Calm - 0.00 in Rain Light Rain
2:12 AM 66.2 °F - 66.2 °F 100% 30.12 in 2.0 mi Calm Calm - 0.00 in   Clear
2:22 AM 66.2 °F - 66.2 °F 100% 30.12 in 4.0 mi Calm Calm - 0.00 in   Clear
2:32 AM 66.2 °F - 66.2 °F 100% 30.12 in 1.8 mi Calm Calm - 0.00 in   Clear
2:42 AM 66.2 °F - 66.2 °F 100% 30.12 in 0.5 mi Calm Calm - 0.00 in Fog Fog
2:51 AM 66.2 °F - 66.2 °F 100% 30.12 in 1.2 mi Calm Calm - 0.00 in   Scattered Clouds
2:53 AM 66.0 °F - 66.0 °F 100% 30.11 in 3.0 mi Calm Calm - 0.00 in   Partly Cloudy
3:19 AM 66.2 °F - 66.2 °F 100% 30.11 in 1.8 mi Calm Calm - N/A   Clear
3:27 AM 66.2 °F - 66.2 °F 100% 30.11 in 0.5 mi Calm Calm - N/A Fog Fog
3:37 AM 66.2 °F - 66.2 °F 100% 30.11 in 0.5 mi Calm Calm - N/A Fog Fog
3:44 AM 64.4 °F - 64.4 °F 100% 30.11 in 1.2 mi South 3.5 mph - N/A   Partly Cloudy
3:51 AM 64.4 °F - 64.4 °F 100% 30.11 in 3.0 mi Calm Calm - N/A   Partly Cloudy
3:53 AM 64.9 °F - 64.9 °F 100% 30.10 in 3.0 mi Calm Calm - N/A   Partly Cloudy
3:57 AM 64.4 °F - 64.4 °F 100% 30.11 in 1.8 mi Calm Calm - N/A   Partly Cloudy
4:11 AM 66.2 °F - 66.2 °F 100% 30.11 in 2.5 mi Calm Calm - N/A   Clear
4:17 AM 64.4 °F - 64.4 °F 100% 30.11 in 0.8 mi Calm Calm - N/A   Clear
4:26 AM 64.4 °F - 64.4 °F 100% 30.10 in 2.0 mi Calm Calm - N/A   Clear
4:33 AM 64.4 °F - 64.4 °F 100% 30.11 in 0.8 mi Calm Calm - N/A   Clear
4:42 AM 64.4 °F - 64.4 °F 100% 30.11 in 0.2 mi Calm Calm - N/A Fog Fog
4:53 AM 64.0 °F - 64.0 °F 100% 30.10 in 0.5 mi Calm Calm - N/A Fog Fog
4:57 AM 64.4 °F - 64.4 °F 100% 30.12 in 1.5 mi Calm Calm - N/A   Scattered Clouds
5:01 AM 64.4 °F - 64.4 °F 100% 30.12 in 3.0 mi Calm Calm - N/A   Scattered Clouds
5:26 AM 64.4 °F - 64.4 °F 100% 30.12 in 1.8 mi Calm Calm - N/A   Clear
5:39 AM 64.4 °F - 64.4 °F 100% 30.12 in 0.5 mi Calm Calm - N/A Fog Fog
5:53 AM 64.9 °F - 64.9 °F 100% 30.12 in 0.5 mi Calm Calm - N/A Fog Fog
6:04 AM 64.4 °F - 64.4 °F 100% 30.13 in 1.2 mi Calm Calm - N/A   Partly Cloudy
6:12 AM 64.4 °F - 64.4 °F 100% 30.12 in 2.5 mi Calm Calm - N/A   Clear
6:26 AM 64.4 °F - 64.4 °F 100% 30.12 in 1.2 mi Calm Calm - N/A   Clear
6:41 AM 64.4 °F - 64.4 °F 100% 30.12 in 2.5 mi Calm Calm - N/A   Clear
6:53 AM 64.9 °F - 64.9 °F 100% 30.12 in 2.0 mi SSW 3.5 mph - N/A   Clear
6:56 AM 64.4 °F - 64.4 °F 100% 30.12 in 6.0 mi SW 4.6 mph - N/A   Clear
7:00 AM 64.4 °F - 64.4 °F 100% 30.13 in 6.0 mi SW 3.5 mph - N/A   Partly Cloudy
7:53 AM 68.0 °F - 68.0 °F 100% 30.13 in 7.0 mi Calm Calm - N/A   Clear
8:53 AM 72.0 °F - 69.1 °F 91% 30.14 in 7.0 mi SSW 3.5 mph - N/A   Clear
9:53 AM 77.0 °F - 70.0 °F 79% 30.14 in 10.0 mi Calm Calm - N/A   Clear
10:53 AM 82.0 °F 85.9 °F 70.0 °F 67% 30.13 in 10.0 mi SW 9.2 mph - N/A   Clear
11:53 AM 84.0 °F 89.0 °F 71.1 °F 65% 30.13 in 10.0 mi Variable 5.8 mph - N/A   Clear
12:53 PM 84.9 °F 89.4 °F 70.0 °F 61% 30.13 in 10.0 mi WSW 9.2 mph - N/A   Clear
1:53 PM 84.0 °F 88.4 °F 70.0 °F 63% 30.12 in 10.0 mi SW 8.1 mph - N/A   Clear
2:53 PM 87.1 °F 92.8 °F 71.1 °F 59% 30.11 in 10.0 mi SW 10.4 mph - N/A   Partly Cloudy
3:53 PM 87.1 °F 92.8 °F 71.1 °F 59% 30.09 in 10.0 mi SSW 9.2 mph - N/A   Partly Cloudy
4:53 PM 86.0 °F 89.4 °F 68.0 °F 55% 30.07 in 10.0 mi SW 10.4 mph - N/A   Scattered Clouds
5:53 PM 84.0 °F 88.4 °F 70.0 °F 63% 30.05 in 10.0 mi SSW 6.9 mph - N/A   Partly Cloudy
6:53 PM 84.9 °F 89.4 °F 70.0 °F 61% 30.05 in 10.0 mi SW 6.9 mph - N/A   Clear
7:53 PM 84.0 °F 89.0 °F 71.1 °F 65% 30.05 in 10.0 mi SSW 6.9 mph - N/A   Partly Cloudy
8:53 PM 80.1 °F 83.6 °F 71.1 °F 74% 30.07 in 9.0 mi SSW 6.9 mph - N/A   Clear
9:53 PM 77.0 °F - 72.0 °F 84% 30.08 in 9.0 mi South 4.6 mph - N/A   Clear
10:53 PM 77.0 °F - 72.0 °F 84% 30.09 in 10.0 mi South 4.6 mph - N/A   Clear
11:53 PM 75.9 °F - 71.1 °F 85% 30.09 in 10.0 mi South 5.8 mph - N/A   Mostly Cloudy